W2JV-2 Weather Reports


Display with metric or nautical units.
time (UTC)temp
F
wind
direction
speed
MPH
gust
MPH
rain 1hr
in
rain 24hr
in
rain mn
in
humidity
%
barometer
mb
20260503212503 59 264 2.0 7.0 0.00 0.00 0.00 29 1009.5
20260503212003 59 21 4.0 12.0 0.00 0.00 0.00 28 1009.4
20260503211504 59 334 1.0 7.0 0.00 0.00 0.00 30 1009.5
20260503211005 59 335 3.0 9.0 0.00 0.00 0.00 27 1009.5
20260503210504 59 338 4.0 10.0 0.00 0.00 0.00 28 1009.4
20260503210003 59 340 2.0 9.0 0.00 0.00 0.00 31 1009.4
20260503204503 59 300 3.0 8.0 0.00 0.00 0.00 28 1009.4
20260503204003 59 315 3.0 8.0 0.00 0.00 0.00 31 1009.3
20260503203504 59 333 2.0 7.0 0.00 0.00 0.00 30 1009.4
20260503203004 60 273 3.0 8.0 0.00 0.00 0.00 31 1009.4
20260503202504 60 286 4.0 7.0 0.00 0.00 0.00 29 1009.4
20260503202004 60 305 3.0 12.0 0.00 0.00 0.00 32 1009.5
20260503201505 60 314 3.0 9.0 0.00 0.00 0.00 30 1009.5
20260503200504 60 271 4.0 9.0 0.00 0.00 0.00 31 1009.6
20260503200004 60 311 2.0 3.0 0.00 0.00 0.00 33 1009.7
20260503195503 60 289 4.0 12.0 0.00 0.00 0.00 33 1009.7
20260503195003 60 282 4.0 8.0 0.00 0.00 0.00 31 1009.7
20260503194004 60 336 3.0 7.0 0.00 0.00 0.00 30 1009.8
20260503193503 60 300 6.0 12.0 0.00 0.00 0.00 32 1009.8
20260503193004 59 283 3.0 8.0 0.00 0.00 0.00 33 1009.8
20260503192503 58 294 3.0 9.0 0.00 0.00 0.00 33 1009.9
20260503192004 58 291 4.0 9.0 0.00 0.00 0.00 33 1010.0
20260503190504 59 191 5.0 14.0 0.00 0.00 0.00 33 1010.1
20260503190003 59 189 4.0 9.0 0.00 0.00 0.00 32 1010.0
20260503184504 59 194 3.0 9.0 0.00 0.00 0.00 32 1010.2
20260503184004 59 191 3.0 8.0 0.00 0.00 0.00 33 1010.1
20260503183504 59 191 5.0 9.0 0.00 0.00 0.00 34 1010.1
20260503182503 58 192 4.0 8.0 0.00 0.00 0.00 33 1010.1
20260503182004 59 194 3.0 8.0 0.00 0.00 0.00 32 1010.0
20260503181504 59 189 5.0 9.0 0.00 0.00 0.00 32 1009.9
20260503180504 59 191 3.0 8.0 0.00 0.00 0.00 32 1009.8
20260503180004 59 192 6.0 12.0 0.00 0.00 0.00 30 1010.0
20260503175504 59 192 5.0 9.0 0.00 0.00 0.00 31 1009.9
20260503175003 59 192 4.0 9.0 0.00 0.00 0.00 30 1009.9
20260503174503 58 195 3.0 9.0 0.00 0.00 0.00 31 1009.8
20260503174003 58 190 3.0 8.0 0.00 0.00 0.00 33 1009.9
20260503173504 58 190 3.0 8.0 0.00 0.00 0.00 34 1010.0
20260503173003 57 194 3.0 7.0 0.00 0.00 0.00 35 1010.0
20260503172505 57 206 3.0 8.0 0.00 0.00 0.00 37 1010.0
20260503172005 56 194 2.0 5.0 0.00 0.00 0.00 35 1010.1
20260503171503 56 190 3.0 7.0 0.00 0.00 0.00 36 1010.1
20260503171003 56 193 2.0 8.0 0.00 0.00 0.00 36 1010.1
20260503170504 56 193 3.0 12.0 0.00 0.00 0.00 36 1010.1
20260503151005 55 189 3.0 6.0 0.00 0.00 0.00 42 1010.5
20260503150504 55 190 2.0 7.0 0.00 0.00 0.00 43 1010.5
20260503131003 49 297 2.0 8.0 0.00 0.00 0.00 54 1010.4
20260503130502 48 279 3.0 7.0 0.00 0.00 0.00 54 1010.4
20260503090503 46 0 0.0 2.0 0.00 0.02 0.00 56 1009.4
20260503081502 47 4 0.0 2.0 0.00 0.02 0.00 54 1009.7
20260503081002 47 17 0.0 2.0 0.00 0.02 0.00 54 1009.7
20260503080502 47 355 0.0 3.0 0.00 0.02 0.00 53 1009.7
20260503072002 48 13 0.0 3.0 0.00 0.02 0.00 52 1009.7
20260503071503 48 25 1.0 5.0 0.00 0.02 0.00 52 1009.7
20260503071002 49 13 1.0 3.0 0.00 0.02 0.00 52 1009.4
20260503070502 49 7 1.0 3.0 0.00 0.02 0.00 52 1009.6
20260503055003 50 12 0.0 6.0 0.00 0.02 0.00 54 1009.9
20260503054502 50 353 0.0 3.0 0.00 0.02 0.00 56 1009.9
20260503054003 50 3 0.0 2.0 0.00 0.02 0.00 57 1010.0
20260503053004 50 347 0.0 2.0 0.00 0.02 0.00 56 1010.2
20260503052502 50 0 1.0 3.0 0.00 0.02 0.00 56 1010.2
20260503052003 50 4 0.0 2.0 0.00 0.02 0.00 57 1010.3
20260503051502 50 3 1.0 2.0 0.00 0.02 0.00 56 1010.4
20260503051002 50 349 0.0 2.0 0.00 0.02 0.00 57 1010.5
20260503050502 50 349 0.0 2.0 0.00 0.02 0.00 57 1010.4
20260503050002 50 355 0.0 2.0 0.00 0.02 0.00 56 1010.5
20260503045502 50 6 0.0 1.0 0.00 0.02 0.00 57 1010.5
20260503045002 50 22 0.0 2.0 0.00 0.02 0.00 58 1010.6
20260503044502 50 5 0.0 1.0 0.00 0.02 0.00 56 1010.6
20260503043502 50 4 1.0 3.0 0.00 0.02 0.00 57 1010.3
20260503043002 50 9 0.0 3.0 0.00 0.02 0.00 59 1010.6
20260503042003 50 344 0.0 3.0 0.00 0.02 0.00 60 1010.7
20260503041502 50 8 1.0 2.0 0.00 0.02 0.00 62 1010.6
20260503040503 50 356 0.0 1.0 0.00 0.02 0.00 66 1010.7
20260503040002 50 331 0.0 0.0 0.00 0.02 0.00 67 1010.8
20260503035503 50 332 0.0 1.0 0.00 0.02 0.02 67 1010.5
20260503035002 50 332 0.0 1.0 0.00 0.02 0.02 67 1010.5
20260503034002 51 332 0.0 0.0 0.00 0.02 0.02 67 1010.4
20260503033502 51 332 0.0 0.0 0.00 0.02 0.02 66 1010.4
20260503033002 51 332 0.0 2.0 0.00 0.02 0.02 67 1010.3
20260503032503 51 3 0.0 0.0 0.00 0.02 0.02 67 1010.4
20260503032002 51 3 0.0 1.0 0.00 0.02 0.02 67 1010.4
20260503031502 51 3 0.0 0.0 0.00 0.02 0.02 66 1010.5
20260503031002 51 3 0.0 0.0 0.00 0.02 0.02 66 1010.4
20260503030502 51 3 0.0 0.0 0.00 0.02 0.02 66 1010.4
20260503025502 51 3 0.0 2.0 0.00 0.02 0.02 66 1010.4
20260503025004 51 3 0.0 1.0 0.00 0.02 0.02 67 1010.5
20260503024503 51 3 0.0 1.0 0.00 0.02 0.02 67 1010.5
20260503023502 51 11 0.0 1.0 0.00 0.02 0.02 68 1010.6
20260503023002 51 10 0.0 1.0 0.00 0.02 0.02 69 1010.6
20260503022503 51 2 0.0 2.0 0.00 0.02 0.02 70 1010.6
20260503022002 51 2 0.0 1.0 0.00 0.02 0.02 70 1010.7
20260503021503 52 16 0.0 2.0 0.00 0.02 0.02 71 1010.6
20260503021002 52 352 0.0 2.0 0.00 0.02 0.02 71 1010.9
20260503020502 52 354 0.0 1.0 0.00 0.02 0.02 71 1010.8
20260503015502 52 266 0.0 1.0 0.00 0.02 0.02 71 1010.6
20260503013503 52 263 0.0 2.0 0.00 0.02 0.02 70 1010.6
20260503013003 52 167 0.0 1.0 0.00 0.02 0.02 70 1010.6
20260503012508 52 167 0.0 1.0 0.00 0.02 0.02 69 1010.6
20260503012002 52 198 0.0 0.0 0.00 0.02 0.02 69 1010.5
20260503011503 52 198 0.0 0.0 0.00 0.02 0.02 69 1010.3
20260503011003 52 198 0.0 0.0 0.00 0.02 0.02 68 1010.3
20260503010502 52 199 0.0 0.0 0.00 0.02 0.02 68 1010.3
20260503010002 53 198 0.0 0.0 0.00 0.02 0.02 68 1010.2
20260503005503 53 195 0.0 2.0 0.00 0.02 0.02 67 1010.1
20260503005002 53 190 0.0 0.0 0.00 0.02 0.02 66 1010.1
20260503004502 53 190 0.0 0.0 0.00 0.02 0.02 66 1010.1
20260503004003 53 189 0.0 0.0 0.00 0.02 0.02 66 1010.0
20260503003502 54 190 0.0 0.0 0.00 0.02 0.02 66 1009.9
20260503003002 54 190 0.0 0.0 0.00 0.02 0.02 66 1009.9
20260503002502 54 191 0.0 0.0 0.00 0.02 0.02 65 1009.9
20260503002003 54 190 0.0 0.0 0.00 0.02 0.02 65 1010.0
20260503001502 54 190 0.0 0.0 0.00 0.02 0.02 65 1009.9
20260503001003 55 190 0.0 0.0 0.00 0.02 0.02 64 1009.9
20260503000002 55 189 0.0 0.0 0.00 0.02 0.02 63 1009.9
20260502234503 56 189 0.0 0.0 0.00 0.02 0.02 61 1009.8
20260502234002 56 189 0.0 0.0 0.00 0.02 0.02 60 1009.7
20260502232502 57 190 0.0 0.0 0.00 0.02 0.02 61 1009.7
20260502232002 57 190 0.0 0.0 0.00 0.02 0.02 61 1009.7
20260502231003 57 190 0.0 0.0 0.00 0.02 0.02 59 1009.7
20260502230502 57 190 0.0 0.0 0.00 0.02 0.02 60 1009.7
20260502230004 57 190 0.0 0.0 0.00 0.02 0.02 60 1009.6
20260502225503 57 190 0.0 0.0 0.00 0.02 0.02 60 1009.7
20260502225002 57 190 0.0 0.0 0.00 0.02 0.02 61 1009.7
20260502224503 57 190 0.0 0.0 0.00 0.02 0.02 62 1009.8
20260502224003 57 190 0.0 0.0 0.00 0.02 0.02 61 1009.7
20260502223503 57 190 0.0 0.0 0.00 0.02 0.02 60 1009.6
20260502223003 58 190 0.0 0.0 0.00 0.02 0.02 58 1009.6
20260502222004 58 336 0.0 0.0 0.00 0.02 0.02 59 1009.6
20260502221502 58 338 0.0 0.0 0.00 0.02 0.02 59 1009.7
20260502220002 58 335 0.0 0.0 0.00 0.02 0.02 58 1009.6
20260502215502 58 357 0.0 0.0 0.00 0.02 0.02 58 1009.6
20260502215002 58 357 0.0 0.0 0.00 0.02 0.02 58 1009.6
20260502214503 58 357 0.0 0.0 0.00 0.02 0.02 58 1009.7
20260502214003 58 357 0.0 3.0 0.00 0.02 0.02 58 1009.7
20260502213503 59 297 1.0 3.0 0.00 0.02 0.02 56 1009.6